Regional Weather Roundup
Issued by NWS Memphis, TN

Home | Current Version | Previous Version | Text Only | Print | Product List | Glossary On
Versions: 1 2 3 4 5 6 7 8 9 10 11 12 13 14 15 16 17 18 19 20 21 22 23 24 25 26 27 28 29 30 31 32 33 34 35 36 37 38 39 40 41 42 43 44 45 46 47 48 49 50
000
ASUS44 KMEG 220810
RWRMEG
MEMPHIS CWA HOURLY WEATHER ROUNDUP
NATIONAL WEATHER SERVICE MEMPHIS TN
300 AM CDT WED OCT 22 2014

...WEST TENNESSEE...

CITY           SKY/WX    TMP DP  RH WIND       PRES   REMARKS
MEMPHIS INTL   CLEAR     56  46  69 E6        30.14R
JACKSON        CLEAR     48  43  82 NE3       30.15R
LEXINGTON      CLEAR     48  43  81 CALM      30.14R
SAVANNAH       CLEAR     45  45 100 CALM      30.14R
DYERSBURG      CLEAR     50  36  57 NE3       30.17S
UNION CITY     CLEAR     45  41  87 N3        30.16R
PARIS          CLEAR     46  39  76 NE6       30.16S


...EASTERN ARKANSAS...

CITY           SKY/WX    TMP DP  RH WIND       PRES   REMARKS
JONESBORO      CLEAR     53  47  79 NE9       30.15S
WEST MEMPHIS   CLEAR     52  49  89 NE5       30.13R
BATESVILLE     CLEAR     48  46  93 CALM      30.16R
NEWPORT        CLEAR     50  47  89 N6        30.17R
WALNUT RIDGE   CLEAR     50  37  62 N7        30.15S
BLYTHEVILLE    CLEAR     49  46  90 NE6       30.16R
SEARCY         CLEAR     52  47  83 N3        30.16R
STUTTGART      CLEAR     52  46  82 NE7       30.13R
PINE BLUFF     CLEAR     51  48  89 CALM      30.12R
MONTICELLO     CLEAR     51  49  92 CALM      30.10S


...NORTH MISSISSIPPI...

CITY           SKY/WX    TMP DP  RH WIND       PRES   REMARKS
TUPELO         CLEAR     50  46  86 NE3       30.11R
OXFORD         CLEAR     48  46  93 NE6       30.13S
OLIVE BRANCH   CLEAR     52  50  93 CALM      30.15R
TUNICA         CLEAR     50  46  87 NE7       30.13S
CLARKSDALE     CLEAR     50  48  93 CALM      30.12S
CORINTH        CLEAR     48  45  87 N3        30.12S
GRENADA          N/A    N/A N/A N/A MISG        N/A
GREENWOOD      CLEAR     49  47  93 CALM      30.10R
COLUMBUS       CLEAR     47  46  97 N1        30.09R
STARKVILLE     FAIR      50  46  87 N3        30.09S
GOLDEN TRIANGL CLEAR     48  43  81 N8        30.08S


...SOUTHEAST MISSOURI...

CITY           SKY/WX    TMP DP  RH WIND       PRES   REMARKS
WEST PLAINS    CLEAR     48  42  80 NE6       30.18S
POPLAR BLUFF   CLEAR     49  42  77 NE6       30.18R
CAPE GIRARDEAU CLEAR     44  40  85 CALM      30.20R


...NORTHWEST ALABAMA...

CITY           SKY/WX    TMP DP  RH WIND       PRES   REMARKS
MUSCLE SHOALS  CLEAR     53  44  71 NE3       30.13R


...MIDDLE TENNESSEE...

CITY           SKY/WX    TMP DP  RH WIND       PRES   REMARKS
NASHVILLE      CLEAR     47  42  83 N5        30.16R
CLARKSVILLE    CLEAR     43  39  86 N6        30.17R
COLUMBIA         N/A     43  43 100 CALM      30.13R


...WESTERN KENTUCKY...

CITY           SKY/WX    TMP DP  RH WIND       PRES   REMARKS
PADUCAH        CLEAR     45  41  86 NE3       30.18R
FORT CAMPBELL  CLEAR     42  41  96 N6        30.17R


...CENTRAL ARKANSAS...

CITY           SKY/WX    TMP DP  RH WIND       PRES   REMARKS
LITTLE ROCK    CLEAR     54  49  83 CALM      30.14R


SKY/WX REPORTED AS FAIR MEANS FEW OR NO CLOUDS BELOW
12 THOUSAND FEET.




USA.gov is the U.S. government's official web portal to all federal, state and local government web resources and services.